Other Public Products
Issued by NWS Charleston, SC

Current Version | Previous Version | Graphics & Text | Print | Product List | Glossary On
Versions: 1 2 3 4 5 6 7 8 9 10 11 12 13 14 15 16 17 18 19 20 21 22 23 24 25 26 27 28 29 30 31 32 33 34 35 36 37 38 39 40 41 42 43 44 45 46 47 48 49 50
000
FPUS82 KCHS 180727
OPUCHS

TEST...KCHS/KSAV Gateway Observations...TEST
National Weather Service Charleston SC
200 AM EST WED JAN 18 2017

NOTE: "fair" indicates few or no clouds below 12,000 feet with no
significant weather and/or obstructions to visibility.

SCZ050-WAZ558-NCZ071-TXZ119-213-PAZ071-DCZ001-FLZ074-172-MI076-
NYZ176-178-MAZ016-IL014-TNZ027-NJZ106-GAZ044-MD014-180800-
...Gateway Observations for Charleston International...

CITY           SKY/WX    TMP DP  RH WIND       PRES   REMARKS
Chas Airport   PTCLDY    62  57  83 SW10      30.11F
Seattle        RAIN      47  46  97 SE7       29.54R FOG
Charlotte      CLOUDY    63  53  70 SW12G21   30.01F
Dallas DFW     LGT RAIN  48  47  96 N7        30.12S
Dallas Love    HVY RAIN  47  46  97 NW7       30.15R FOG
Philladelphia  CLOUDY    43  42  97 N3        29.90S FOG
Wash National  FOG       46  46 100 NE7       29.89R VSB 3/4
Baltimore      FOG       44  44 100 CALM      29.87F VSB 1/4
Miami          PTCLDY    70  61  73 CALM      30.20F
Detroit        CLOUDY    39  36  89 W8        29.94R WCI  33
Newark         DRIZZLE   39  38  96 N10       29.91F FOG     WCI  32
Laguardia      DRIZZLE   40  38  93 NE14      29.91F FOG     WCI  32
J F K          DRIZZLE   41  38  89 N8        29.91F FOG
Boston Logan   LGT RAIN  37  37 100 E16       30.06F FOG     WCI  28
Ft. Lauderdale PTCLDY    67  62  84 CALM      30.19F
Chicago O`Hare CLOUDY    35  33  92 W8        30.02R FOG     WCI  29
Chicago Midway CLOUDY    34  32  92 W7        30.03R FOG     WCI  28
Houston Bush   LGT RAIN  61  60  97 E7        30.03F VSB 1/4
Houston Hobby  FOG       66  65  96 E3        30.03F VSB 1
Nashville      CLOUDY    50  42  74 NW7       30.14S
Atlanta        PTCLDY    65  59  81 SW10      30.11F

$$

GAZ044-118-TXZ119-213-NCZ071-DCZ001-MDZ014-506-PAZ021-071-NJZ106-
NYZ176-178-MAZ106-OHZ011-021-055-MIZ076-KYZ091-ILZ014-INZ047-
MNZ060-180800-
...Gateway Observations for Savannah International...

CITY           SKY/WX    TMP DP  RH WIND       PRES   REMARKS
Savannah Arpt  MOCLDY    61  57  87 SW8       30.15F
Atlanta        PTCLDY    65  59  81 SW10      30.11F
Charlotte      CLOUDY    63  53  70 SW12G21   30.01F
Dallas DFW     LGT RAIN  48  47  96 N7        30.12S
Houston Bush   LGT RAIN  61  60  97 E7        30.03F VSB 1/4
Wash National  FOG       46  46 100 NE7       29.89R VSB 3/4
Wash Dulles    CLOUDY    46  45  96 N3        29.87S FOG
Baltimore      FOG       44  44 100 CALM      29.87F VSB 1/4
Philadelphia   CLOUDY    43  42  97 N3        29.90S FOG
Newark         DRIZZLE   39  38  96 N10       29.91F FOG     WCI  32
Laguardia      DRIZZLE   40  38  93 NE14      29.91F FOG     WCI  32
J F K          DRIZZLE   41  38  89 N8        29.91F FOG
Boston         LGT RAIN  37  37 100 E16       30.06F FOG     WCI  28
Pittsburg      CLOUDY    48  42  80 W12       29.91S
Akron          LGT RAIN  45  41  86 W13       29.93S FOG
Cleveland      DRIZZLE   44  40  85 W12       29.96S
Cincinnati     DRIZZLE   43  41  93 W9        30.05R FOG
Columbus         N/A     43  41  91 W9        30.01R
Detroit        CLOUDY    39  36  89 W8        29.94R WCI  33
Chicago O`Hare CLOUDY    35  33  92 W8        30.02R FOG     WCI  29
Minneapolis    CLOUDY    30  26  85 S7        29.98S WCI  23
Indianapolis   DRIZZLE   36  34  92 W15       30.08R WCI  27

$$




USA.gov is the U.S. government's official web portal to all federal, state and local government web resources and services.